Temperature
15 15 16 16 17 17 17 17 17 17 16 16 16 16 16 16 16 16 16 16 17 17 17 17 17 17 17 17 16 16 16 16 16 16 16 16 16 16 16 16 17 17 17
15 15 16 16 17 17 17 16 16 16 16 16 15 15 15 16 16 16 16 16 17 17 17 17 17 17 17 17 16 16 16 16 15 15 16 16 16 16 16 16 16 16 16
14 15 16 16 16 16 16 16 16 16 16 16 16 16 16 16 16 16 16 16 16 17 17 17 17 17 17 17 17 16 16 16 15 15 15 16 16 16 16 16 16 16 16
15 15 16 16 16 16 16 16 16 16 16 16 16 16 15 15 15 15 16 16 16 17 17 17 17 17 17 17 17 16 16 16 16 15 15 15 15 15 15 15 16 16 16
15 15 16 16 16 16 16 16 16 16 16 15 15 15 15 15 15 15 15 15 16 16 16 16 16 16 16 16 16 16 16 16 16 15 15 15 15 15 15 15 16 16 16
15 15 15 15 16 16 16 16 16 16 15 15 15 14 14 14 14 14 14 15 15 15 15 16 16 16 16 16 16 16 16 16 16 15 15 15 15 15 14 14 15 15 16
15 15 15 15 15 15 15 15 15 15 15 14 14 14 14 13 13 13 13 13 13 14 14 14 15 15 15 15 15 15 16 16 16 16 15 15 15 14 14 14 14 14 15
14 15 15 15 15 15 15 15 14 14 14 14 13 13 13 13 13 13 12 12 12 12 13 13 13 13 14 14 15 15 15 15 15 15 15 15 15 14 14 14 13 13 14
14 15 15 15 14 14 14 14 14 13 13 13 13 13 12 12 12 12 12 11 11 11 12 12 12 12 13 13 14 14 14 14 15 15 15 15 15 14 14 14 13 13 13
15 15 14 14 14 13 13 13 13 13 13 13 12 12 12 12 12 11 11 11 11 11 11 11 11 11 12 12 12 13 13 14 14 14 14 14 14 14 14 14 13 13 13
14 14 13 13 13 13 12 12 12 12 12 12 12 12 12 11 11 11 11 10 10 10 10 10 10 10 11 11 11 12 12 12 13 13 14 14 14 14 14 14 13 13 13
13 13 13 12 12 12 12 12 12 11 11 11 11 11 11 11 11 11 11 10 10 10 10 10 10 10 10 10 11 11 11 11 12 12 13 13 13 13 14 14 13 13 13
13 12 12 12 11 11 11 11 11 11 11 11 11 11 11 11 11 11 10 10 10 10 10 10 10 10 10 10 10 10 10 11 11 11 12 12 13 13 13 13 13 13 13
12 12 11 11 11 10 10 10 10 10 10 10 10 10 10 10 10 10 10 10 10 10 10 10 9 9 9 9 9 9 9 10 10 10 11 11 12 12 13 13 13 13 13
11 11 10 10 9 9 9 8 8 8 8 8 8 8 9 9 9 9 9 9 9 9 9 9 9 9 9 9 9 9 9 9 9 10 10 10 11 12 12 13 13 13 13
10 10 9 9 8 8 7 7 7 7 7 7 7 7 7 7 8 8 8 8 9 9 9 9 9 9 9 9 9 9 9 9 9 9 9 10 10 11 12 12 13 13 13
9 9 8 8 7 7 6 6 6 5 5 5 6 6 6 6 6 7 7 7 8 8 8 8 8 8 8 8 8 9 8 8 9 9 9 9 10 11 11 12 12 12 13
8 8 7 7 6 6 5 5 5 5 5 5 5 5 5 5 5 5 6 6 7 7 7 7 8 8 8 8 8 8 8 8 8 9 9 9 10 10 11 11 12 12 13
8 7 7 6 6 5 5 5 5 5 4 4 4 4 4 4 4 4 5 5 5 6 6 6 7 7 7 8 8 8 8 8 8 8 9 9 9 10 10 11 11 12 12
7 7 6 6 6 5 5 5 4 4 4 4 4 4 4 4 4 4 4 5 5 5 5 6 6 7 7 7 7 8 8 8 8 8 8 8 9 9 10 10 11 11 12
7 6 6 6 6 5 5 5 5 5 4 4 4 4 4 4 4 4 4 4 4 5 5 5 6 6 6 7 7 7 7 8 8 8 8 8 9 9 9 10 10 11 11
6 6 6 6 6 5 5 5 5 5 5 4 4 4 4 4 4 4 4 4 4 4 5 5 5 6 6 6 7 7 7 7 7 8 8 8 8 9 9 9 10 10 11
6 6 6 6 6 6 5 5 5 5 5 5 4 4 4 4 4 4 4 4 4 4 4 5 5 5 6 6 6 7 7 7 7 8 8 8 8 8 9 9 10 10 10
6 6 6 6 6 6 6 6 6 6 5 5 5 5 4 4 4 4 4 4 4 4 4 4 5 5 6 6 6 7 7 7 7 7 8 8 8 8 8 9 9 10 10
6 6 6 6 6 6 6 6 6 6 6 5 5 5 5 4 4 4 4 4 4 4 4 5 5 5 6 6 6 7 7 7 7 7 7 7 8 8 8 9 9 9 9
6 6 6 6 6 6 6 6 6 6 6 6 6 5 5 5 5 5 4 5 5 5 5 5 5 5 6 6 6 7 7 7 7 7 7 7 8 8 8 8 8 9 9
Wind_Speed
7 7 7 7 6 7 6 6 7 7 6 4 4 4 4 3 2 2 5 8 9 9 7 6 6 6 6 6 5 3 3 2 2 1 1 2 3 3 4 4 4 4 5
7 7 6 6 6 6 6 6 7 7 7 4 3 3 3 2 1 2 3 5 6 6 6 7 7 7 5 5 6 4 3 2 3 3 1 2 2 1 1 1 2 2 2
7 6 6 6 6 6 6 5 5 5 6 6 4 3 3 3 4 5 4 5 5 3 4 7 6 7 7 7 7 6 6 4 3 3 3 3 3 2 2 1 1 2 2
5 4 5 6 6 4 4 4 4 5 5 5 5 5 4 3 3 3 4 6 5 4 2 3 6 7 6 7 7 7 5 5 4 3 3 2 3 2 1 2 2 3 3
5 5 5 5 5 5 4 4 4 3 3 3 4 4 3 1 2 3 5 6 6 6 6 4 2 4 6 7 7 7 7 6 5 4 3 2 1 2 2 3 3 3 3
6 6 6 7 7 7 6 5 4 4 3 2 1 2 1 2 3 3 4 4 4 4 6 5 4 3 4 6 7 8 9 8 6 5 5 4 3 4 4 4 3 3 3
6 8 8 8 9 9 8 7 6 6 5 4 3 2 2 2 2 3 3 3 3 3 4 4 4 4 4 5 6 8 9 9 8 8 6 6 5 4 4 3 3 3 3
7 9 10 10 10 10 9 8 7 8 8 7 7 6 5 4 4 5 4 4 4 4 4 4 4 4 4 4 5 7 9 8 10 10 8 6 7 6 5 4 3 2 2
8 9 10 10 10 10 10 9 9 9 9 9 9 8 8 7 7 7 6 5 6 5 5 4 4 3 3 3 3 5 8 8 10 10 10 8 7 7 7 6 5 4 2
8 9 9 9 8 9 9 9 9 10 11 10 10 9 9 9 9 8 8 8 8 7 7 6 5 5 3 3 2 3 5 7 8 8 9 9 7 7 7 7 6 6 5
9 9 9 9 9 9 10 10 11 11 11 12 12 11 11 11 10 9 10 10 9 8 8 7 7 6 6 4 3 3 3 5 6 8 9 11 9 8 7 7 7 7 6
10 9 9 9 10 11 11 11 12 13 13 13 12 13 12 11 11 12 12 11 11 10 9 8 8 8 7 5 5 5 4 5 5 6 8 10 9 10 8 8 8 8 8
10 9 10 10 11 12 12 12 13 14 14 13 13 14 14 13 13 14 13 12 12 11 10 9 9 9 8 7 7 7 6 6 6 6 6 7 9 10 9 9 9 8 7
11 10 11 11 12 13 13 13 14 14 15 14 15 15 16 15 15 14 13 13 12 12 12 11 11 10 9 9 8 8 7 7 7 7 6 6 7 9 10 9 10 9 8
12 12 12 12 12 12 12 12 13 14 14 15 15 16 16 15 15 14 13 13 12 13 12 12 11 10 9 9 9 9 8 7 7 7 7 7 8 10 9 8 9 10 9
12 13 13 13 13 13 13 13 13 13 13 14 16 16 16 16 16 15 14 13 13 12 11 12 12 11 10 12 14 11 8 8 8 7 7 7 9 10 12 13 13 14 12
13 13 13 13 13 13 13 13 14 14 14 15 16 16 16 16 16 17 15 13 12 11 11 11 11 12 12 15 15 15 9 9 8 8 7 7 6 8 8 10 13 15 15
11 12 12 12 13 13 14 14 15 15 15 16 16 16 16 17 16 15 15 14 11 10 10 10 11 11 12 15 16 15 11 9 9 9 9 8 7 7 8 7 9 10 12
12 13 14 15 13 14 14 15 16 16 16 17 17 17 17 17 16 16 14 12 10 10 9 7 9 10 11 14 15 13 7 8 10 9 9 9 9 10 11 9 9 10 9
12 13 13 14 14 14 14 15 17 17 17 18 18 17 16 16 16 15 13 11 10 10 10 9 9 10 10 12 14 12 6 7 7 7 7 10 11 11 12 10 10 11 9
14 14 14 14 14 14 14 16 17 17 18 18 17 17 15 14 13 12 11 9 8 8 9 9 8 8 10 11 13 12 7 8 7 6 6 6 10 12 13 11 10 11 9
13 12 13 15 14 13 14 16 17 17 17 17 17 16 14 12 11 9 8 7 7 7 7 7 7 6 8 10 11 12 12 10 8 7 6 6 8 10 11 10 9 11 11
12 13 14 15 15 13 13 16 17 17 17 16 16 14 13 10 9 8 7 6 5 5 5 5 6 6 5 7 11 12 12 13 9 7 8 8 7 7 6 9 11 12 10
13 12 14 16 16 15 15 15 16 16 16 16 14 13 11 10 9 7 5 5 4 4 5 5 6 5 4 5 5 5 6 9 9 7 6 6 6 5 5 5 8 8 9
11 12 14 15 16 16 16 16 15 15 15 15 13 12 10 9 8 7 5 4 4 5 5 5 5 5 5 6 8 6 6 6 7 6 4 4 4 5 5 5 6 6 7
13 13 14 15 16 16 16 15 14 15 14 13 12 10 9 8 7 6 5 4 3 4 7 7 6 5 6 5 6 8 8 8 10 7 5 6 6 6 6 6 6 6 8
Wind_Direction
46 41 39 38 43 35 24 16 6 358 355 344 334 329 319 289 251 245 264 252 239 225 202 199 191 185 185 187 180 164 174 185 164 155 290 297 269 257 247 246 247 254 259
40 31 27 27 33 34 28 24 16 6 359 345 317 296 307 313 346 353 305 276 253 229 207 199 193 189 183 183 181 168 164 179 173 162 163 304 326 321 303 269 231 262 278
34 17 12 12 21 24 17 17 9 5 3 357 347 343 354 357 14 7 345 320 304 260 219 208 198 193 187 192 191 180 171 182 194 190 165 178 224 288 318 316 312 321 305
11 357 353 355 3 359 352 352 353 357 358 10 37 47 36 19 356 339 336 338 343 334 304 239 213 203 199 198 195 187 179 168 183 199 212 197 171 175 298 313 313 310 292
333 324 322 321 317 312 311 308 319 338 345 12 44 62 52 5 324 337 348 350 353 360 3 343 273 228 216 213 201 187 187 183 180 181 178 187 193 188 200 262 303 312 289
298 298 299 298 294 292 290 287 296 303 309 333 22 67 50 352 350 346 345 342 338 345 356 356 341 293 247 226 214 204 197 197 191 190 184 176 173 189 196 226 255 285 290
278 283 285 283 279 278 274 273 276 281 283 286 281 260 246 256 271 282 293 306 314 312 321 334 327 311 283 254 225 212 210 203 201 202 203 201 200 177 176 201 237 263 286
272 275 275 274 276 278 276 270 265 266 272 273 272 269 259 250 251 252 253 258 257 263 274 290 300 302 299 280 240 225 220 211 211 211 206 207 209 197 189 189 197 241 266
274 275 278 281 282 283 280 273 267 268 268 264 263 264 260 251 251 253 253 256 258 262 262 267 278 287 292 294 273 239 230 217 215 216 212 212 210 201 200 197 193 197 228
285 287 289 292 295 294 291 288 272 266 268 267 262 263 254 250 248 250 252 251 253 256 265 269 267 269 270 267 265 269 250 232 224 217 214 216 213 204 200 200 201 203 207
288 290 295 299 297 298 295 290 284 278 276 272 268 265 262 257 250 246 248 248 250 249 250 256 262 265 263 251 237 243 262 253 243 228 220 222 212 206 203 197 196 202 206
288 290 294 297 296 294 293 288 284 282 279 277 275 272 268 262 255 250 248 244 243 244 243 243 246 253 255 246 236 241 240 246 255 248 231 227 219 213 205 198 199 201 202
299 300 301 297 295 294 293 291 288 286 286 285 283 280 277 271 262 255 249 243 240 241 239 235 237 242 244 243 242 237 231 229 239 248 246 237 221 218 209 202 202 200 199
300 298 298 296 295 296 296 295 293 291 291 289 286 283 279 275 271 263 254 245 238 236 236 233 232 235 239 240 241 240 236 228 226 229 238 245 234 227 215 206 204 195 193
299 298 298 297 297 298 298 297 295 294 294 293 290 286 283 280 277 270 261 253 242 237 233 231 231 231 232 237 234 232 235 229 229 228 232 235 241 241 226 212 201 191 192
300 302 303 303 303 303 302 301 299 297 296 294 292 290 288 286 282 276 268 258 248 239 229 227 227 228 231 231 228 222 225 228 230 236 239 240 238 244 237 222 205 192 192
304 304 304 301 301 302 303 302 299 299 297 294 293 292 289 287 285 282 275 264 254 242 231 226 222 226 230 232 235 231 223 228 230 233 239 250 240 222 232 227 215 207 202
299 302 302 302 301 301 302 302 303 302 300 297 295 293 290 288 285 281 273 266 258 248 238 231 223 223 231 230 234 237 231 230 234 235 236 242 251 234 218 217 217 215 212
299 302 303 304 304 305 306 307 307 305 303 301 297 295 291 288 286 282 273 266 257 248 238 228 223 223 232 231 231 230 223 226 234 237 235 235 245 237 215 211 214 217 217
304 304 304 305 307 308 311 312 313 312 309 307 303 299 294 289 285 282 276 267 255 246 239 234 226 224 231 234 231 221 213 221 232 239 238 235 237 233 214 213 209 213 209
303 305 308 312 312 313 316 316 315 315 313 310 308 305 301 295 290 286 279 271 260 247 235 234 231 227 230 236 233 218 204 212 223 231 237 237 234 230 218 216 215 210 192
308 311 314 317 316 317 319 319 318 317 317 315 314 313 309 304 302 295 287 278 262 246 235 231 235 234 232 231 234 224 213 207 212 222 229 233 232 228 219 216 210 190 179
310 314 316 319 320 321 321 320 319 321 321 320 319 318 316 312 305 297 290 281 260 242 229 223 229 236 232 229 228 227 221 213 211 220 220 224 225 220 218 217 199 182 182
315 317 320 322 323 323 323 320 320 323 323 323 323 323 322 319 315 306 292 274 254 235 225 223 227 232 234 230 222 218 218 213 212 216 215 209 206 205 204 196 193 192 184
316 317 321 322 322 323 323 323 324 326 327 326 326 327 327 325 323 319 308 286 257 236 222 224 219 219 232 233 213 202 204 198 196 183 181 182 186 196 195 191 190 184 176
317 320 322 324 324 324 323 324 328 329 328 327 328 327 327 327 326 326 329 329 311 263 240 239 234 234 234 238 218 212 205 188 170 165 180 192 198 196 193 187 181 176 172
Height
1506 1505 1504 1503 1503 1502 1502 1500 1499 1498 1495 1492 1489 1486 1483 1480 1479 1482 1486 1490 1492 1494 1495 1496 1498 1499 1500 1500 1501 1501 1502 1503 1503 1504 1504 1504 1503 1503 1504 1504 1505 1506 1507
1507 1506 1505 1505 1503 1502 1501 1500 1499 1497 1495 1492 1490 1487 1484 1481 1480 1481 1484 1486 1488 1491 1492 1493 1495 1496 1496 1496 1497 1497 1498 1499 1499 1500 1500 1500 1500 1499 1499 1500 1501 1502 1503
1509 1509 1507 1506 1504 1503 1502 1501 1499 1497 1495 1493 1491 1488 1485 1483 1482 1482 1484 1484 1485 1486 1488 1490 1491 1492 1492 1493 1493 1493 1494 1494 1495 1496 1497 1497 1496 1496 1497 1497 1497 1498 1499
1512 1511 1509 1508 1506 1505 1504 1502 1500 1497 1495 1492 1490 1488 1486 1484 1483 1482 1482 1482 1482 1482 1484 1485 1486 1487 1488 1489 1489 1489 1490 1491 1491 1492 1493 1494 1493 1493 1494 1495 1495 1495 1495
1514 1513 1511 1510 1508 1506 1504 1502 1500 1497 1494 1492 1489 1487 1484 1483 1481 1480 1479 1478 1478 1478 1478 1479 1480 1481 1483 1484 1485 1485 1486 1487 1488 1488 1489 1489 1490 1490 1491 1491 1492 1492 1491
1516 1514 1512 1510 1508 1506 1504 1501 1499 1496 1493 1490 1488 1485 1483 1481 1479 1477 1476 1475 1474 1473 1473 1473 1473 1475 1476 1478 1479 1481 1482 1483 1484 1484 1485 1485 1486 1486 1487 1487 1487 1487 1487
1516 1514 1512 1509 1507 1504 1502 1499 1496 1493 1491 1488 1485 1483 1480 1478 1476 1474 1472 1470 1469 1468 1468 1468 1467 1468 1469 1471 1473 1474 1476 1478 1479 1480 1481 1481 1482 1483 1484 1485 1484 1484 1483
1515 1513 1510 1508 1505 1502 1499 1496 1492 1490 1487 1484 1482 1479 1477 1474 1472 1470 1468 1466 1464 1463 1463 1462 1462 1462 1462 1463 1465 1467 1470 1472 1473 1475 1476 1477 1478 1479 1480 1481 1482 1481 1481
1514 1511 1508 1505 1501 1498 1495 1491 1488 1485 1482 1480 1477 1474 1472 1470 1467 1465 1463 1461 1459 1458 1457 1456 1456 1456 1456 1456 1458 1460 1462 1465 1466 1469 1470 1472 1473 1475 1476 1477 1479 1480 1478
1511 1508 1505 1501 1498 1494 1490 1487 1483 1480 1477 1475 1472 1469 1466 1464 1461 1459 1457 1455 1454 1453 1452 1451 1450 1450 1450 1450 1451 1452 1454 1457 1459 1462 1464 1466 1468 1470 1472 1473 1474 1475 1476
1508 1504 1501 1498 1494 1491 1487 1483 1479 1475 1472 1468 1465 1462 1459 1457 1454 1452 1450 1449 1448 1447 1446 1445 1444 1444 1443 1444 1444 1445 1446 1448 1451 1454 1456 1459 1462 1464 1466 1468 1469 1471 1472
1504 1501 1497 1494 1490 1486 1482 1477 1473 1469 1465 1461 1457 1454 1450 1448 1445 1444 1442 1442 1440 1440 1439 1439 1438 1438 1438 1437 1438 1438 1439 1441 1443 1446 1448 1452 1455 1457 1460 1462 1464 1466 1468
1501 1497 1494 1489 1485 1480 1476 1471 1466 1462 1457 1453 1448 1444 1441 1438 1436 1434 1433 1432 1432 1432 1431 1431 1431 1432 1432 1432 1432 1432 1432 1433 1435 1437 1440 1444 1447 1450 1453 1456 1458 1461 1463
1497 1493 1489 1484 1479 1474 1469 1464 1459 1454 1449 1444 1439 1435 1431 1428 1425 1423 1422 1422 1422 1422 1422 1423 1423 1424 1425 1425 1426 1426 1426 1427 1428 1430 1432 1435 1438 1442 1445 1449 1452 1455 1457
1493 1489 1484 1478 1473 1467 1462 1456 1451 1446 1440 1435 1429 1424 1421 1417 1414 1412 1411 1410 1411 1411 1412 1414 1415 1416 1417 1418 1419 1420 1421 1422 1423 1424 1425 1427 1430 1433 1437 1442 1445 1448 1451
1488 1484 1478 1472 1467 1461 1455 1449 1443 1437 1432 1426 1420 1415 1410 1406 1402 1400 1399 1398 1398 1400 1402 1403 1405 1407 1409 1411 1412 1414 1415 1416 1417 1418 1419 1422 1423 1426 1429 1434 1438 1441 1444
1484 1478 1473 1466 1460 1454 1448 1441 1435 1429 1423 1417 1411 1406 1401 1396 1392 1389 1387 1386 1387 1389 1391 1393 1395 1398 1400 1403 1405 1407 1408 1410 1411 1413 1414 1416 1417 1419 1423 1426 1430 1433 1437
1479 1473 1466 1460 1454 1447 1441 1434 1428 1421 1415 1409 1402 1397 1391 1386 1382 1378 1376 1375 1376 1377 1380 1383 1386 1389 1392 1395 1397 1400 1401 1403 1404 1406 1407 1409 1411 1414 1417 1419 1422 1426 1429
1474 1468 1461 1454 1447 1441 1434 1427 1420 1414 1407 1401 1394 1388 1382 1376 1372 1368 1366 1365 1365 1367 1369 1373 1377 1380 1383 1387 1390 1392 1394 1396 1398 1400 1402 1403 1405 1408 1410 1413 1415 1419 1423
1469 1462 1455 1448 1441 1435 1428 1421 1414 1407 1400 1393 1386 1380 1374 1368 1362 1359 1357 1356 1356 1357 1360 1364 1368 1372 1375 1379 1382 1385 1387 1389 1391 1394 1396 1398 1400 1402 1404 1406 1409 1412 1416
1464 1457 1450 1442 1436 1429 1423 1416 1409 1402 1395 1387 1380 1373 1366 1361 1355 1352 1350 1349 1349 1350 1352 1356 1360 1364 1368 1372 1375 1378 1380 1383 1386 1388 1390 1392 1394 1396 1398 1400 1402 1406 1411
1458 1451 1444 1438 1431 1425 1419 1412 1405 1398 1390 1382 1375 1367 1361 1355 1351 1347 1345 1344 1344 1345 1347 1350 1354 1358 1362 1365 1368 1372 1374 1377 1380 1382 1385 1387 1389 1390 1392 1394 1397 1401 1405
1454 1447 1441 1433 1427 1422 1415 1408 1401 1394 1386 1379 1371 1364 1358 1353 1348 1345 1342 1341 1341 1342 1343 1346 1349 1352 1356 1359 1362 1365 1368 1371 1374 1377 1379 1382 1384 1385 1387 1390 1393 1396 1400
1450 1443 1437 1430 1424 1418 1412 1406 1399 1391 1384 1376 1369 1362 1356 1351 1347 1343 1341 1339 1339 1340 1341 1343 1345 1348 1351 1354 1357 1360 1363 1366 1369 1371 1374 1377 1379 1381 1383 1385 1388 1391 1395
1446 1440 1434 1427 1421 1415 1409 1403 1396 1389 1382 1375 1369 1362 1356 1351 1347 1343 1341 1339 1338 1338 1340 1341 1343 1346 1348 1351 1353 1356 1358 1361 1364 1367 1370 1372 1374 1376 1378 1381 1383 1387 1392
1443 1437 1431 1425 1418 1412 1406 1400 1394 1388 1381 1374 1368 1362 1357 1352 1348 1345 1342 1340 1338 1338 1339 1341 1342 1344 1346 1348 1350 1352 1355 1357 1360 1363 1365 1368 1370 1372 1374 1376 1380 1384 1388